Weather History for Chehalis, WA

Change the Weather History Date:

Monday, January 30, 2012

  Actual Average (KOLM) Record (KOLM)
Temperature  
Mean Temperature 46 °F 40 °F  
Max Temperature 50 °F 48 °F 56 °F (1960)
Min Temperature 41 °F 33 °F 6 °F (1950)
Degree Days  
Heating Degree Days 20 25  
Month to date heating degree days 760  
Since 1 July heating degree days 3030  
Cooling Degree Days 0 0  
Month to date cooling degree days 0  
Year to date cooling degree days 0  
Moisture  
Dew Point 42 °F    
Average Humidity 87    
Maximum Humidity 100    
Minimum Humidity 71    
Precipitation  
Precipitation 0.03 in 0.24 in 1.08 in (1952)
Month to date precipitation 7.61  
Year to date precipitation 7.61  
Sea Level Pressure  
Sea Level Pressure 30.07 in    
Wind  
Wind Speed 5 mph (SSW)    
Max Wind Speed 12 mph    
Max Gust Speed -    
Visibility 9 miles    
Events Rain    
T = Trace of Precipitation, MM = Missing Value Source: NWS Daily Summary

Daily Weather History Graph

Daily Weather History Graph

Search for Another Location

Airport:

Trip Planner

Search our weather history database for the weather conditions in past years. The results will help you decide how hot, cold, wet, or windy it might be!

Date:

Astronomy

Jan. 30, 2012 Rise Set
Actual Time 7:38 AM PST 5:12 PM PST
Civil Twilight 7:06 AM PST 5:44 PM PST
Nautical Twilight 6:29 AM PST 6:21 PM PST
Astronomical Twilight 5:54 AM PST 6:56 PM PST
Moon 10:32 AM PST (1/30) 12:31 AM PST (1/30)
Length of Visible Light 10h 38m
Length of Day
9h 33m
Waxing Crescent, 47% of the Moon is Illuminated
Jan 30
Waxing Crescent
Jan 30
First Quarter
Feb 7
Full
Feb 14
Last Quarter
Feb 21
New

Hourly Weather History & Observations

Time (PST) Temp. Windchill Dew Point Humidity Pressure Visibility Wind Dir Wind Speed Gust Speed Precip Events Conditions
12:15 AM 46.4 °F 44.3 °F 44.6 °F 93% 29.92 in 10.0 mi SW 4.6 mph - 0.01 in Rain Light Rain
12:35 AM 46.4 °F 43.5 °F 44.6 °F 93% 29.93 in 10.0 mi SW 5.8 mph - 0.01 in   Overcast
12:55 AM 46.4 °F 42.9 °F 44.6 °F 93% 29.94 in 5.0 mi SW 6.9 mph - 0.01 in   Overcast
1:15 AM 46.4 °F 42.9 °F 44.6 °F 93% 29.95 in 8.0 mi SW 6.9 mph - N/A   Overcast
1:35 AM 46.4 °F 42.9 °F 44.6 °F 93% 29.95 in 4.0 mi SW 6.9 mph - N/A   Overcast
1:55 AM 46.4 °F 42.4 °F 44.6 °F 93% 29.97 in 5.0 mi SW 8.1 mph - N/A   Overcast
2:15 AM 46.4 °F 42.4 °F 44.6 °F 93% 29.98 in 5.0 mi SW 8.1 mph - N/A   Overcast
2:35 AM 46.4 °F 42.9 °F 44.6 °F 93% 29.99 in 6.0 mi SW 6.9 mph - N/A   Overcast
2:55 AM 46.4 °F 42.9 °F 44.6 °F 93% 30.00 in 7.0 mi WSW 6.9 mph - N/A   Overcast
3:15 AM 46.4 °F 42.9 °F 42.8 °F 87% 30.01 in 10.0 mi SW 6.9 mph - N/A   Overcast
3:35 AM 44.6 °F 41.4 °F 42.8 °F 93% 30.02 in 10.0 mi SW 5.8 mph - N/A   Mostly Cloudy
3:55 AM 44.6 °F 41.4 °F 41.0 °F 87% 30.03 in 10.0 mi SW 5.8 mph - N/A   Overcast
4:15 AM 44.6 °F 40.2 °F 41.0 °F 87% 30.04 in 10.0 mi WSW 8.1 mph - N/A   Overcast
4:35 AM 44.6 °F 40.7 °F 41.0 °F 87% 30.05 in 10.0 mi SSW 6.9 mph - N/A   Overcast
4:55 AM 44.6 °F 39.7 °F 41.0 °F 87% 30.05 in 10.0 mi SSW 9.2 mph - N/A   Overcast
5:15 AM 44.6 °F 41.4 °F 41.0 °F 87% 30.06 in 10.0 mi South 5.8 mph - N/A   Overcast
5:35 AM 44.6 °F 42.2 °F 41.0 °F 87% 30.08 in 10.0 mi SW 4.6 mph - N/A   Overcast
5:55 AM 44.6 °F 43.1 °F 41.0 °F 87% 30.08 in 10.0 mi SSW 3.5 mph - N/A   Overcast
6:15 AM 44.6 °F 41.4 °F 41.0 °F 87% 30.09 in 2.5 mi South 5.8 mph - N/A   Mostly Cloudy
6:35 AM 44.6 °F - 41.0 °F 87% 30.10 in 7.0 mi Calm Calm - N/A   Overcast
6:55 AM 44.6 °F 43.1 °F 41.0 °F 87% 30.10 in 7.0 mi SSW 3.5 mph - N/A   Overcast
7:15 AM 44.6 °F 43.1 °F 41.0 °F 87% 30.10 in 10.0 mi SSW 3.5 mph - N/A   Overcast
7:35 AM 44.6 °F 41.4 °F 41.0 °F 87% 30.11 in 10.0 mi SSW 5.8 mph - 0.01 in   Overcast
7:55 AM 44.6 °F - 41.0 °F 87% 30.12 in 1.0 mi Calm Calm - 0.01 in Rain Light Rain
8:15 AM 44.6 °F 41.4 °F 41.0 °F 87% 30.12 in 1.8 mi SSW 5.8 mph - N/A Rain Light Rain
8:35 AM 44.6 °F 43.1 °F 42.8 °F 93% 30.12 in 7.0 mi SW 3.5 mph - 0.01 in Rain Light Rain
8:55 AM 44.6 °F 42.2 °F 42.8 °F 93% 30.12 in 3.0 mi South 4.6 mph - 0.01 in   Overcast
9:15 AM 44.6 °F 42.2 °F 42.8 °F 93% 30.12 in 9.0 mi South 4.6 mph - N/A   Overcast
9:35 AM 44.6 °F 43.1 °F 42.8 °F 93% 30.12 in 8.0 mi South 3.5 mph - N/A   Overcast
9:55 AM 46.4 °F 45.2 °F 42.8 °F 87% 30.12 in 7.0 mi SSE 3.5 mph - N/A   Overcast
10:15 AM 46.4 °F 45.2 °F 42.8 °F 87% 30.11 in 6.0 mi South 3.5 mph - N/A   Overcast
10:35 AM 46.4 °F 43.5 °F 42.8 °F 87% 30.11 in 8.0 mi South 5.8 mph - N/A   Overcast
10:55 AM 46.4 °F - 42.8 °F 87% 30.11 in 10.0 mi Calm Calm - N/A   Overcast
11:15 AM 48.2 °F - 44.6 °F 87% 30.11 in 6.0 mi SSW 4.6 mph - N/A   Overcast
11:35 AM 48.2 °F - 42.8 °F 82% 30.11 in 10.0 mi SW 4.6 mph - N/A   Overcast
12:15 PM 48.2 °F - 41.0 °F 76% 30.11 in 10.0 mi SW 3.5 mph - N/A   Overcast
12:35 PM 48.2 °F - 41.0 °F 76% 30.10 in 10.0 mi SSW 4.6 mph - N/A   Overcast
12:55 PM 48.2 °F - 41.0 °F 76% 30.10 in 10.0 mi WSW 4.6 mph - N/A   Overcast
1:15 PM 48.2 °F - 41.0 °F 76% 30.10 in 10.0 mi SSW 4.6 mph - N/A   Overcast
1:35 PM 50.0 °F - 41.0 °F 71% 30.09 in 10.0 mi South 5.8 mph - N/A   Overcast
1:55 PM 50.0 °F - 41.0 °F 71% 30.09 in 10.0 mi South 5.8 mph - N/A   Overcast
2:15 PM 48.2 °F - 41.0 °F 76% 30.08 in 10.0 mi South 5.8 mph - N/A   Overcast
2:35 PM 48.2 °F - 41.0 °F 76% 30.09 in 10.0 mi SSW 11.5 mph - N/A   Overcast
2:55 PM 48.2 °F - 41.0 °F 76% 30.09 in 10.0 mi SSW 4.6 mph - N/A   Overcast
3:15 PM 48.2 °F - 41.0 °F 76% 30.09 in 10.0 mi SSW 5.8 mph - N/A   Overcast
3:35 PM 48.2 °F - 41.0 °F 76% 30.09 in 10.0 mi South 4.6 mph - N/A   Overcast
3:55 PM 48.2 °F - 41.0 °F 76% 30.10 in 10.0 mi WSW 3.5 mph - N/A   Overcast
4:35 PM 46.4 °F - 41.0 °F 81% 30.09 in 10.0 mi Calm Calm - N/A   Overcast
4:55 PM 46.4 °F 45.2 °F 41.0 °F 81% 30.09 in 10.0 mi SW 3.5 mph - N/A   Overcast
5:15 PM 46.4 °F - 41.0 °F 81% 30.09 in 10.0 mi Calm Calm - N/A   Overcast
5:35 PM 46.4 °F 45.2 °F 41.0 °F 81% 30.09 in 10.0 mi West 3.5 mph - N/A   Overcast
5:55 PM 44.6 °F - 42.8 °F 93% 30.09 in 10.0 mi Calm Calm - N/A   Overcast
6:15 PM 44.6 °F - 42.8 °F 93% 30.09 in 10.0 mi Calm Calm - N/A   Overcast
6:35 PM 44.6 °F - 42.8 °F 93% 30.09 in 10.0 mi Calm Calm - N/A   Overcast
6:55 PM 44.6 °F - 41.0 °F 87% 30.09 in 10.0 mi Calm Calm - N/A   Mostly Cloudy
7:15 PM 44.6 °F - 41.0 °F 87% 30.08 in 10.0 mi Calm Calm - N/A   Scattered Clouds
7:35 PM 42.8 °F - 41.0 °F 93% 30.08 in 10.0 mi Calm Calm - N/A   Clear
7:55 PM 41.0 °F 37.1 °F 41.0 °F 100% 30.06 in 10.0 mi ESE 5.8 mph - N/A   Partly Cloudy
8:15 PM 42.8 °F 39.3 °F 41.0 °F 93% 30.06 in 10.0 mi South 5.8 mph - N/A   Scattered Clouds
8:35 PM 41.0 °F - 41.0 °F 100% 30.07 in 9.0 mi Calm Calm - N/A   Scattered Clouds
8:55 PM 41.0 °F 38.0 °F 41.0 °F 100% 30.06 in 10.0 mi SSW 4.6 mph - N/A   Mostly Cloudy
9:15 PM 42.8 °F - 41.0 °F 93% 30.07 in 10.0 mi Calm Calm - N/A   Overcast
9:55 PM 41.0 °F 39.0 °F 39.2 °F 93% 30.06 in 10.0 mi SW 3.5 mph - N/A   Overcast
10:15 PM 39.2 °F 37.0 °F 39.2 °F 100% 30.06 in 10.0 mi SW 3.5 mph - N/A   Overcast
10:35 PM 39.2 °F 37.0 °F 37.4 °F 93% 30.06 in 10.0 mi West 3.5 mph - N/A   Overcast
10:55 PM 39.2 °F 37.0 °F 39.2 °F 100% 30.07 in 10.0 mi WSW 3.5 mph - N/A   Overcast
11:15 PM 39.2 °F - 39.2 °F 100% 30.07 in 9.0 mi Calm Calm - N/A   Overcast
11:35 PM 39.2 °F - 39.2 °F 100% 30.07 in 5.0 mi Calm Calm - N/A   Overcast
11:55 PM 39.2 °F - 39.2 °F 100% 30.08 in 8.0 mi Calm Calm - N/A   Overcast